QB50P2 (40032 NORAD) Tracking and Keplerian Element Data

This shows tracking and keplerian element data for the satellite.

Feedback or suggestion? Click here.




ElementValue
Catalog40032
NameQB50P2
Epoch Orbit45742
Epoch Day324.79647657
Epoch Year2022
RAAN258.3354
Inclination97.9485
Eccentricity0.0009653
Argument of Perigee260.1472
Mean Anonmoly99.8656
Mean Motion14.90716747
Decay Rate1.877E-05
L11 40032U 14033Y 22324.79647657 .00001877 00000+0 19700-3 0 9996
L22 40032 97.9485 258.3354 0009653 260.1472 99.8656 14.90716747457429



Live tracking and technical data element details for QB50P2 (NORAD 40032). QB50P2 can be tracked NOW for your location showing map with azimuth and elevation plus other details from your city location.







IsCatalogInMostPopularTable: catalog: 40032, numindb: 332
Update: records affected: 1



GetName: 40032 QB50P2

Hit Count: updated at: Mon, 28 Nov 2022 04:55:59 GMT